Volver al catálogo

STARLINK-36219

ActivoComunicacionesVLEO
NORAD 67125·PAYLOAD·🇺🇸 United States

Lanzado Dec 15, 2025 desde Cape Canaveral Space Force Station

Loading…

Próximos Pases (próximas 24 horas)

TLE

ActualizadoSource: CelesTrak SupGP

Época: Sep 15, 2026, 04:00 UTC

1 67125C 25299Z   26258.16715278  .00015635  00000+0  56637-3 0  2585
2 67125  43.0033 178.9119 0001311 273.5371 116.0226 15.27566589    19

Sigue STARLINK-36219 en tiempo real con AllMySat

Download on the App Store